COSMOS 494

Satellite information

Favourite Embed

Satellite Type and Status

PAYLOADIN ORBIT

Key statistics

Satellite COSMOS 494 at a glance.

Uptime

19478

Days in orbit

Revolutions

≈ 14.4

Per day

Orbit

LEO

Low Earth Orbit

Inclination

74.1

Latest

Satellite identification and parameters

Extended collection of information and parameters for COSMOS 494.

Object identification

Identified? True

Debris? False

Object name: COSMOS 494

International designator: 1972-043A

Object number (NORAD): 6059

Object ID (CCSDS): 6059

Country: COMMONWEALTH OF INDEPENDENT STATES (CIS)

Current information (Y/N): Y

RCS size: LARGE

Orbital parameters

Period: 100.248 minutes

Inclination: 74.0545 deg

SMA: 7148.434 km

Apoapsis: 777.702 km

Periapsis: 762.897 km

RAAN: 160.9389 deg

Eccentricy: 0.00103553

Argument of periapsis: 351.7081 deg

Mean anomaly: 8.3899 deg

Mean motion: 14.36436327 rev/day

Mean motion (dot): 0.00000251 rev/day2

B* drag term: 0.000094551747 1/REarth

Two-line elements (TLE)

Creation date: Oct. 21, 2025, 3:26 a.m.

Reference frame: TEME

Reference center: EARTH

Epoch: Oct. 20, 2025, 10:02 p.m. UTC

TLE line 0: 0 COSMOS 494

TLE line 1: 1 06059U 72043A 25293.91805648 .00000251 00000-0 94552-4 0 9995

TLE line 2: 2 06059 74.0545 160.9389 0010355 351.7081 8.3899 14.36436327789787

Live tracking on map

Real-time ground track for satellite COSMOS 494.

In-orbit conjunctions

A list of the most updated potential collisions computed for object COSMOS 494.

Target Orbit TCA Probability of collision Miss distance Type
FENGYUN 1C DEB SSO 2025-07-16 11:21:29 0.0001176607 417.0 (m) DEBRIS
SCOUT G-1 DEB LEO 2025-04-23 11:00:50 0.0002580368 405.0 (m) DEBRIS
FENGYUN 1C DEB SSO 2025-01-30 18:18:32 0.0002258634 811.0 (m) DEBRIS
NOAA 16 DEB SSO 2025-01-16 08:35:50 0.0002042695 335.0 (m) DEBRIS
NOAA 17 DEB SSO 2024-11-11 11:18:38 0.0001485444 512.0 (m) DEBRIS

Associated space launch

The soviet Zenit-4M (Rotor, 11F691) was an improved version of the Zenit-4 high resolution reconnaissance satellite and was part of the Vostok-based Zenit-family.

COSMOS 494 was lifted into orbit during the mission ‘Voskhod | Zenit-4M 37’, on board a Voskhod space rocket.

The launch took place on June 23, 1972, 11:19 a.m. from 43/3 (43L).

For more information about the launch, click the button.

Launch to space Voskhod | Zenit-4M 37
Voskhod | Zenit-4M 37

Agency: N/A

Status: Launch Successful

Launch date: June 23, 1972, 11:19 a.m. UTC

Rocket: Voskhod

Launch pad: 43/3 (43L)

Location: Plesetsk Cosmodrome, Russian Federation

...

Latest news about this satellite

There are no fresh news available about this satellite. Check back as we update our databases every day.


Newsletter sign-up

Weekly statistics, charts and insights to help you stay on top of the space industry.